This is the latest recevied weather packets stored in our database for station/object lw9ero. If no packets are shown the sender has not sent any weather packets the latest 10 day(s).
| Time | Temp. | Humidity | Pressure | Rain* | Wind** | Luminosity | Snow |
|---|---|---|---|---|---|---|---|
| 1778199101 | 10° C | 92% | 1007.4 hPa | 0 mm | - | - | - |
| 1778198494 | 10° C | 90% | 1007.4 hPa | 0 mm | - | - | - |
| 1778197888 | 10.56° C | 90% | 1007.2 hPa | 0 mm | - | - | - |
| 1778197283 | 10.56° C | 89% | 1007.3 hPa | 0 mm | - | - | - |
| 1778196678 | 10.56° C | 90% | 1007 hPa | 0 mm | - | - | - |
| 1778196070 | 10.56° C | 89% | 1007.4 hPa | 0 mm | - | - | - |
| 1778195463 | 10.56° C | 89% | 1007.3 hPa | 0 mm | - | - | - |
| 1778194870 | 10.56° C | 89% | 1007.1 hPa | 0 mm | - | - | - |
| 1778194250 | 11.11° C | 90% | 1006.5 hPa | 0 mm | - | - | - |
| 1778193645 | 11.11° C | 90% | 1006.5 hPa | 0 mm | - | - | - |
| 1778193051 | 11.11° C | 89% | 1006.1 hPa | 0 mm | - | - | - |
| 1778192447 | 11.11° C | 89% | 1006.3 hPa | 0 mm | - | - | - |
| 1778191833 | 11.11° C | 89% | 1006.1 hPa | 0 mm | - | - | - |
| 1778191226 | 11.11° C | 88% | 1005.9 hPa | 0 mm | - | - | - |
| 1778190614 | 11.11° C | 87% | 1006.1 hPa | 0 mm | - | - | - |
| 1778190010 | 11.67° C | 87% | 1006 hPa | 0 mm | - | - | - |
| 1778189401 | 11.67° C | 87% | 1005.7 hPa | 0 mm | - | - | - |
| 1778188795 | 11.67° C | 88% | 1005.8 hPa | 0 mm | - | - | - |
| 1778188189 | 11.67° C | 88% | 1006 hPa | 0 mm | - | - | - |
| 1778187583 | 11.67° C | 90% | 1005.9 hPa | 0 mm | - | - | - |
| 1778186976 | 11.67° C | 89% | 1005.5 hPa | 0 mm | - | - | - |
| 1778186370 | 11.67° C | 89% | 1005.7 hPa | 0 mm | - | - | - |
| 1778185766 | 11.67° C | 88% | 1005.7 hPa | 0 mm | - | - | - |
| 1778185160 | 11.67° C | 91% | 1005.3 hPa | 0 mm | - | - | - |
| 1778184552 | 11.67° C | 94% | 1005.1 hPa | 0 mm | - | - | - |
* Rain latest hour (hover to see other rain measurements)
** Current wind speed in m/s (hover to see current wind gust speed)